Powrót do katalogu

COSMOS 1275 DEB

AktywnyPO
NORAD 17619·DEBRIS·🇷🇺 Russia

Wystrzelony Jun 4, 1981 z Plesetsk Cosmodrome

Loading…

Następne Przeloty (najbliższe 24 godziny)

TLE

ŚwieżeSource: Space-Track

Epoka: Sep 13, 2026, 15:07 UTC

1 17619U 81053KN  26256.62994407  .00001929  00000-0  63000-3 0  9996
2 17619  82.9397 305.7581 0016558 201.7889 288.2370 14.38120354127879

Śledź COSMOS 1275 DEB w czasie rzeczywistym z AllMySat

Download on the App Store